EW2719 Weather Reports


time (UTC)temp
C
wind
direction
speed
KPH
gust
KPH
rain 1hr
cm
rain 24hr
cm
rain mn
cm
humidity
%
barometer
mb
20260905021552 12 258 12.9 30.6 0.03 0.43 0.03 93 1002.5
20260905020103 12 239 4.8 14.5 0.00 0.43 0.00 93 1002.3
20260905014553 12 267 4.8 16.1 0.00 0.43 0.00 93 1002.1
20260905013052 12 250 4.8 14.5 0.00 0.43 0.00 93 1001.9
20260905011624 12 287 6.4 17.7 0.00 0.43 0.00 93 1001.9
20260905010044 12 263 8.0 22.5 0.00 0.43 0.00 94 1001.9
20260905004544 12 277 6.4 22.5 0.00 0.43 0.00 94 1001.8
20260905003041 12 255 9.7 20.9 0.00 0.43 0.00 94 1001.8
20260905001550 12 278 9.7 22.5 0.00 0.43 0.00 94 1001.7
20260905000037 12 279 9.7 24.1 0.00 0.43 0.00 94 1001.4
20260904234537 12 276 6.4 20.9 0.00 0.43 0.00 94 1001.2
20260904233035 12 282 6.4 20.9 0.00 0.43 0.00 94 1001.1
20260904231531 12 260 8.0 25.7 0.00 0.43 0.00 94 1000.9
20260904230030 12 277 14.5 24.1 0.00 0.43 0.00 94 1000.8
20260904224528 12 252 9.7 24.1 0.00 0.43 0.00 94 1000.9
20260904223027 12 266 3.2 8.0 0.00 0.43 0.00 94 1000.7
20260904221523 12 254 3.2 11.3 0.00 0.43 0.00 93 1000.5
20260904220023 12 263 3.2 12.9 0.00 0.43 0.00 93 1000.4
20260904214520 12 259 4.8 16.1 0.00 0.43 0.43 93 1000.3
20260904213020 12 284 4.8 19.3 0.00 0.43 0.43 93 1000.3
20260904211519 12 260 9.7 19.3 0.00 0.43 0.43 93 1000.2
20260904210021 12 291 12.9 24.1 0.00 0.43 0.43 93 1000.1
20260904204517 12 249 9.7 22.5 0.00 0.43 0.43 92 999.9
20260904203024 12 265 12.9 29.0 0.00 0.43 0.43 92 999.9
20260904201514 12 261 17.7 30.6 0.00 0.43 0.43 92 999.6
20260904200016 13 256 19.3 38.6 0.00 0.43 0.43 92 999.6
20260904194512 13 286 19.3 35.4 0.00 0.43 0.43 92 999.2
20260904193012 13 278 27.4 40.2 0.00 0.43 0.43 93 999.2
20260904191508 13 281 20.9 35.4 0.03 0.43 0.43 93 999.1
20260904190007 13 277 22.5 41.8 0.05 0.43 0.43 93 998.8
20260904184505 13 268 20.9 37.0 0.05 0.43 0.43 94 998.7
20260904183002 13 271 19.3 37.0 0.05 0.43 0.43 94 998.6
20260904181610 14 240 4.8 14.5 0.03 0.41 0.41 94 998.3
20260904180100 14 245 3.2 16.1 0.08 0.38 0.38 94 998.4
20260904174602 14 260 3.2 14.5 0.20 0.38 0.38 93 998.6
20260904173059 14 255 6.4 16.1 0.23 0.38 0.38 93 998.5
20260904171618 14 257 8.0 22.5 0.23 0.38 0.38 92 998.4
20260904170058 15 262 4.8 14.5 0.15 0.30 0.30 92 998.5
20260904164557 15 279 3.2 16.1 0.03 0.18 0.18 90 998.3
20260904163056 15 263 4.8 22.5 0.00 0.15 0.15 89 998.2
20260904161555 16 229 4.8 14.5 0.00 0.15 0.15 87 998.1
20260904160055 16 252 3.2 12.9 0.00 0.15 0.15 87 998.0
20260904154556 16 248 4.8 17.7 0.00 0.15 0.15 87 997.8
20260904153055 16 261 8.0 17.7 0.00 0.15 0.15 87 998.1
20260904151552 17 261 6.4 16.1 0.00 0.15 0.15 87 998.1
20260904150050 17 262 4.8 12.9 0.00 0.15 0.15 87 998.1
20260904144546 17 282 4.8 12.9 0.00 0.46 0.15 88 998.2
20260904143047 16 293 4.8 12.9 0.00 0.46 0.15 89 998.5
20260904141543 16 313 4.8 12.9 0.00 0.46 0.15 89 998.4
20260904140045 17 302 12.9 22.5 0.00 0.46 0.15 90 998.4
20260904134546 17 280 14.5 20.9 0.03 0.48 0.15 92 998.5
20260904133037 16 275 8.0 16.1 0.03 0.48 0.15 94 998.7
20260904131537 15 271 6.4 17.7 0.03 0.48 0.15 94 998.8
20260904130035 16 290 3.2 12.9 0.03 0.48 0.15 94 998.8
20260904124532 15 277 6.4 20.9 0.03 0.84 0.15 94 998.8
20260904123034 15 292 6.4 22.5 0.05 0.84 0.15 94 998.9
20260904121531 15 305 6.4 16.1 0.05 0.84 0.15 94 998.8
20260904120038 15 286 3.2 12.9 0.08 0.84 0.15 94 999.0
20260904114526 15 275 8.0 14.5 0.10 0.84 0.13 94 999.2
20260904113026 15 291 9.7 22.5 0.08 0.81 0.10 93 999.4
20260904111524 15 247 16.1 32.2 0.05 0.79 0.08 93 999.4
20260904110024 15 233 6.4 16.1 0.05 0.79 0.05 93 999.4
20260904104529 15 219 8.0 17.7 0.00 0.71 0.03 93 999.5
20260904103025 15 244 6.4 16.1 0.00 0.71 0.03 93 999.6
20260904101520 15 222 3.2 12.9 0.00 0.71 0.03 93 999.7
20260904100121 15 246 4.8 14.5 0.03 0.71 0.03 93 999.9
20260904094517 15 213 3.2 16.1 0.03 0.76 0.03 93 1000.0
20260904093015 15 214 4.8 14.5 0.03 0.76 0.03 93 1000.2
20260904091511 15 215 8.0 16.1 0.03 0.76 0.03 93 1000.3
20260904090007 15 227 3.2 6.4 0.00 0.71 0.00 93 1000.5
20260904084505 15 211 3.2 14.5 0.00 0.71 0.00 93 1000.8
20260904083004 15 208 4.8 9.7 0.00 0.71 0.00 93 1001.0
20260904081600 14 217 3.2 8.0 0.00 0.71 0.00 93 1001.2
20260904080057 14 227 3.2 11.3 0.00 0.71 0.00 93 1001.4
20260904074602 14 234 3.2 11.3 0.00 0.76 0.00 93 1001.5
20260904073054 14 209 8.0 14.5 0.00 0.76 0.00 93 1001.6
20260904071605 14 239 3.2 8.0 0.00 0.76 0.00 93 1001.8
20260904070051 14 230 3.2 6.4 0.00 0.76 0.00 93 1002.0
20260904064549 13 217 3.2 14.5 0.00 0.79 0.00 93 1002.2
20260904063046 13 234 3.2 12.9 0.00 0.79 0.00 93 1002.2
20260904061543 13 208 8.0 14.5 0.00 0.79 0.00 93 1002.4
20260904060042 13 215 6.4 12.9 0.00 0.79 0.00 93 1002.7
20260904054542 13 205 3.2 9.7 0.00 0.81 0.00 93 1002.7
20260904053042 13 182 4.8 9.7 0.00 0.81 0.00 93 1002.9
20260904051537 13 178 4.8 8.0 0.00 0.81 0.00 92 1003.3
20260904050037 13 194 4.8 9.7 0.00 0.81 0.00 92 1003.4
20260904044534 13 197 6.4 9.7 0.00 0.81 0.00 92 1003.4
20260904043031 13 212 4.8 11.3 0.00 0.81 0.00 91 1003.7
20260904041529 13 219 3.2 14.5 0.00 0.81 0.00 91 1003.8
20260904040035 13 240 3.2 11.3 0.00 0.81 0.00 91 1003.9
20260904034533 13 245 3.2 14.5 0.00 0.81 0.00 91 1004.1
20260904033026 13 234 3.2 11.3 0.00 0.81 0.00 91 1004.1
20260904031524 13 235 6.4 14.5 0.00 0.81 0.00 91 1004.4
20260904030024 13 230 3.2 12.9 0.00 0.81 0.00 91 1004.5
20260904024524 13 251 4.8 14.5 0.00 0.84 0.00 91 1004.6
20260904023021 13 250 4.8 16.1 0.00 0.84 0.00 91 1004.8